Regional Weather Roundup
Issued by NWS

Home | Current Version | Previous Version | Text Only | Print | Product List | Glossary On
Versions: 1 2 3 4 5 6 7 8 9 10 11 12 13 14 15 16 17 18 19 20 21 22 23 24 25 26 27 28 29 30 31 32 33 34 35 36 37 38 39 40 41 42 43 44 45 46 47 48 49 50
155
ASUS44 KLIX 281211
RWRLA
LOUISIANA WEATHER ROUNDUP
NATIONAL WEATHER SERVICE NEW ORLEANS LA
700 AM CDT THU APR 28 2016

NOTE: "FAIR" INDICATES FEW OR NO CLOUDS BELOW 12,000 FEET WITH NO
      SIGNIFICANT WEATHER AND/OR OBSTRUCTIONS TO VISIBILITY.
      SKY/WX - SKY CONDITION AND SIGNIFICANT WEATHER.
      TMP - AIR TEMPERATURE.    DP   - DEWPOINT TEMPERATURE.
      RH  - RELATIVE HUMIDITY.  PRES - PRESSURE.
      HX  - HEAT INDEX.         WCI  - WIND CHILL INDEX.

*  THESE STATIONS ARE NOT NWS OR FAA STATIONS AND ARE NOT UNDER
   NWS QUALITY CONTROL.

LAZ040-048-061>063-065-066-069-281300-
SOUTHEAST LOUISIANA

CITY           SKY/WX    TMP DP  RH WIND       PRES   REMARKS
N.O. AUDUBON     N/A     75  75  99 MISG        N/A
6HR MIN TEMP:  75; 6HR MAX TEMP:  76;

N.O. INTL ARPT MOCLDY    77  74  90 S12       29.85R
6HR MIN TEMP:  76; 6HR MAX TEMP:  77; 6HR PCP:  0.04;

N.O. LAKEFRONT CLOUDY    73  73 100 SW12      29.85R
6HR MIN TEMP:  70; 6HR MAX TEMP:  73;

N.O. DOWNTOWN* CLOUDY    76  74  93 VRB7      29.86R
6HR MIN TEMP:  75; 6HR MAX TEMP:  77; 6HR PCP:  0.01;

RESERVE*       RAIN      78  74  88 SW10G18   29.85R
6HR MIN TEMP:  75; 6HR MAX TEMP:  78; 6HR PCP:  0.01;

SLIDELL        CLOUDY    76  75  97 SW7       29.85R
6HR MIN TEMP:  71; 6HR MAX TEMP:  76; 6HR PCP:  0.02;

BATON ROUGE    CLOUDY    71  69  93 CALM      29.85R FOG
6HR MIN TEMP:  71; 6HR MAX TEMP:  73; 6HR PCP:  0.11;

BOOTHVILLE     CLOUDY    75  74  96 S8        29.87R FOG
6HR MIN TEMP:  74; 6HR MAX TEMP:  75;

BELLE CHASSE   CLOUDY    76  74  93 S14       29.85R FOG
6HR MIN TEMP:  75; 6HR MAX TEMP:  76; 6HR PCP: TRACE;

BOGALUSA*      TSTM      71  68  89 CALM      29.87R
6HR MIN TEMP:  68; 6HR MAX TEMP:  71; 6HR PCP:  0.05;

GALLIANO*      CLOUDY    74  72  93 S9        29.86R
6HR MIN TEMP:  73; 6HR MAX TEMP:  75;

NEW ROADS*     CLOUDY    67  67  99 CALM      29.86R FOG
6HR MIN TEMP:  67; 6HR MAX TEMP:  72;

GONZALES*      CLOUDY    74  74 100 CALM      29.84R FOG
6HR MIN TEMP:  71; 6HR MAX TEMP:  74; 6HR PCP:  0.08;

HAMMOND*       CLOUDY    70  68  94 N3        29.85R THUNDER
HOUMA*         CLOUDY    75  73  94 S7        29.86R FOG
PORT FOURCHON* PTSUNNY   77  75  94 SW8       29.88R

$$

LAZ041-044-053-054-281300-
SOUTHWEST LOUISIANA

CITY           SKY/WX    TMP DP  RH WIND       PRES   REMARKS
LAKE CHARLES   CLEAR     69  68  96 CALM      29.85R FOG
6HR MIN TEMP:  69; 6HR MAX TEMP:  73;

LAFAYETTE      CLOUDY    73  70  90 CALM      29.85R
6HR MIN TEMP:  73; 6HR MAX TEMP:  74;

PATTERSON      NOT AVBL
SALT POINT       N/A    N/A N/A N/A CALM      29.84R
NEW IBERIA     CLOUDY    73  71  93 CALM      29.85R
6HR MIN TEMP:  72; 6HR MAX TEMP:  74;

CHENAULT AIRPK CLEAR     68  68 100 CALM      29.84R FOG

$$

LAZ027-028-281300-
CENTRAL LOUISIANA

CITY           SKY/WX    TMP DP  RH WIND       PRES   REMARKS
FORT POLK      FOG       68  67  97 N6        29.86R VSB 1/8
6HR MIN TEMP:  68; 6HR MAX TEMP:  70;

ALEXANDRIA INT CLOUDY    68  68 100 CALM      29.85R FOG
6HR MIN TEMP:  66; 6HR MAX TEMP:  71;

ALEXANDRIA     CLOUDY    71  69  93 NW3       29.86R FOG
6HR MIN TEMP:  66; 6HR MAX TEMP:  71;


$$

LAZ001-002-281300-
NORTHWEST LOUISIANA

CITY           SKY/WX    TMP DP  RH WIND       PRES   REMARKS
SHREVEPORT     CLEAR     57  55  93 CALM      29.87R
6HR MIN TEMP:  57; 6HR MAX TEMP:  67;

BARKSDALE AFB  CLEAR     57  57 100 CALM      29.87R
6HR MIN TEMP:  55; 6HR MAX TEMP:  64;

DTN SHREVEPORT CLEAR     59  57  93 CALM      29.87R FOG
6HR MIN TEMP:  58; 6HR MAX TEMP:  66;


$$

LAZ014-016-281300-
NORTHEAST LOUISIANA

CITY           SKY/WX    TMP DP  RH WIND       PRES   REMARKS
MONROE         CLEAR     63  63 100 CALM      29.88R FOG
6HR MIN TEMP:  60; 6HR MAX TEMP:  68;

TALLULAH       CLOUDY    69  67  93 CALM      29.87R FOG
6HR MIN TEMP:  66; 6HR MAX TEMP:  70;


$$





USA.gov is the U.S. government's official web portal to all federal, state and local government web resources and services.